Probability
0 0 0 0 0 0 0 0 0 0 0 0 0 0 0 0 0 0 0 0 0 0 0 0 0 0 0 0 0 0 0 0 0 0 0 0 0 0
0 0 0 0 0 0 0 0 0 0 0 0 0 0 0 0 0 0 0 0 0 0 0 0 0 0 0 0 0 0 0 0 0 0 0 0 0 0
0 0 0 0 0 0 0 0 0 0 0 0 0 0 0 0 0 0 0 0 0 0 0 0 0 0 0 0 0 0 0 0 0 0 0 0 0 0
0 0 0 0 0 0 0 0 0 0 0 0 0 0 0 0 0 0 0 0 0 0 0 0 0 0 0 0 0 0 0 0 0 0 0 0 0 0
0 0 0 0 0 0 0 0 0 0 0 0 0 0 0 0 0 0 0 0 0 0 0 0 0 0 0 0 0 0 0 0 0 0 0 0 0 0
0 0 0 0 0 0 0 0 0 0 0 0 0 0 0 0 0 0 0 0 0 0 0 0 0 0 0 0 0 0 0 0 0 0 0 0 0 0
0 0 0 0 0 0 0 0 0 0 0 0 0 0 0 0 0 0 0 0 0 0 0 0 0 0 0 0 0 0 0 0 0 0 0 0 0 0
0 0 0 0 0 0 0 0 0 0 0 0 0 0 0 0 0 0 0 0 0 0 0 0 0 0 0 0 0 0 0 0 0 0 0 0 0 0
0 0 0 0 0 0 0 0 0 0 0 0 0 0 0 0 0 0 0 0 0 0 0 0 0 0 0 0 0 0 0 0 0 0 0 0 0 0
0 0 0 0 0 0 0 0 0 0 0 0 0 0 0 0 0 0 0 0 0 0 0 0 0 0 0 0 0 0 0 0 0 0 0 0 0 0
0 0 0 0 0 0 0 0 0 0 0 0 0 0 0 0 0 0 0 0 0 0 0 0 0 0 0 0 0 0 0 0 0 0 0 0 0 0
0 0 0 0 0 0 0 0 0 0 0 0 0 0 0 0 0 0 0 0 0 0 0 0 0 0 0 0 0 0 0 0 0 0 0 0 0 0
0 0 0 0 0 0 0 0 0 0 0 0 0 0 0 0 0 0 0 0 0 0 0 0 0 0 0 0 0 0 0 0 0 0 0 0 0 0
0 0 0 0 0 0 0 0 0 0 0 0 0 0 0 0 0 0 0 0 0 0 0 0 0 0 0 0 0 0 0 0 0 0 0 0 0 0
0 0 0 0 0 0 0 0 0 0 0 0 0 0 0 0 0 0 0 0 0 0 0 0 0 0 0 0 0 0 0 0 0 0 0 0 0 0
0 0 0 0 0 0 0 0 0 0 0 0 0 0 0 0 0 0 0 0 0 0 0 0 0 0 0 0 0 0 0 0 0 0 0 0 0 0
0 0 0 0 0 0 0 0 0 0 0 0 0 0 0 0 0 0 0 0 0 0 0 0 0 0 0 0 0 0 0 0 0 0 0 0 0 0
0 0 0 0 0 0 0 0 0 0 0 0 0 0 0 0 0 0 0 0 0 0 0 0 0 0 0 0 0 0 0 0 0 0 0 0 0 0
0 0 0 0 0 0 0 0 0 0 0 0 0 0 0 0 0 0 0 0 0 0 0 0 0 0 0 0 0 0 0 0 0 0 0 0 0 0
0 0 0 0 0 0 0 0 0 0 0 0 0 0 0 0 0 0 0 0 0 0 0 0 0 0 0 0 0 0 0 0 0 0 0 0 0 0
0 0 0 0 0 0 0 0 0 0 0 0 0 0 0 0 0 0 0 0 0 0 0 0 0 0 0 0 0 0 0 0 0 0 0 0 0 0
0 0 0 0 0 0 0 0 0 0 0 0 0 0 0 0 0 0 0 0 0 0 0 0 0 0 0 0 0 0 0 0 0 0 0 0 0 0
0 0 0 0 0 0 0 0 0 0 0 0 0 0 0 0 0 0 0 0 0 0 0 0 0 0 0 0 0 0 0 0 0 0 0 0 0 0
Wind_Speed
3 3 3 2 2 2 2 2 4 2 2 3 3 4 4 3 6 5 4 10 11 11 11 11 12 12 12 12 13 13 13 13 13 13 13 13 13 12
2 4 3 2 2 2 2 2 2 3 2 1 2 2 3 4 7 5 5 9 11 11 11 10 10 11 11 11 11 11 12 12 12 12 12 12 12 12
3 3 3 2 2 2 2 3 2 3 3 1 1 2 3 4 4 4 4 4 5 10 10 10 10 10 10 10 10 11 11 11 12 12 12 13 12 12
2 3 2 2 3 2 2 3 2 2 3 1 2 2 3 3 3 4 4 4 3 8 10 10 10 10 10 10 10 10 11 11 11 11 12 12 13 13
2 2 2 3 3 2 2 2 2 2 2 2 1 1 2 2 3 3 4 3 4 6 7 9 9 10 9 9 9 9 10 10 11 11 11 12 12 13
2 2 2 3 3 3 2 2 2 3 3 2 1 1 1 2 2 2 3 3 4 4 5 6 8 9 9 9 9 9 9 10 10 11 11 11 12 13
2 2 2 3 4 3 3 2 3 3 2 2 1 1 1 2 2 1 2 3 3 3 3 4 4 4 5 7 8 9 9 10 10 11 11 11 12 13
2 2 2 2 3 4 5 5 5 4 2 2 0 0 1 1 1 1 1 2 3 3 3 4 3 4 4 3 7 9 10 10 10 11 11 12 13 13
3 2 2 3 3 3 4 4 3 3 3 3 2 2 2 2 1 1 1 1 2 3 2 3 3 4 4 5 9 10 10 11 11 11 12 12 13 14
2 2 2 1 2 3 3 3 2 1 1 1 2 2 2 2 2 2 2 1 2 2 1 2 3 3 4 4 9 9 10 11 12 12 13 13 13 14
2 2 3 2 4 5 4 2 1 1 1 1 1 1 1 1 1 1 1 1 2 3 1 1 3 4 4 4 5 9 10 12 13 14 14 14 14 14
1 1 3 3 4 5 4 3 2 1 1 2 2 3 3 2 2 1 1 1 1 3 2 1 2 3 4 3 3 4 6 9 12 13 14 14 14 9
2 1 2 4 4 4 4 3 3 2 1 1 1 1 2 2 2 1 1 2 2 3 2 1 2 2 3 5 5 4 4 5 6 7 11 14 14 11
3 2 2 4 4 3 2 2 2 1 1 1 1 1 2 2 2 2 2 2 3 4 4 2 2 3 3 5 5 5 5 5 5 6 6 11 12 14
2 4 4 3 3 2 2 2 2 1 1 0 1 2 2 2 2 2 2 2 3 4 3 3 3 3 3 5 5 5 6 5 4 5 6 7 7 7
1 2 3 3 2 1 1 0 0 1 1 2 2 2 1 1 1 1 2 2 3 4 4 4 4 4 4 6 6 6 5 5 6 7 7 7 7 6
3 2 1 1 1 0 0 0 0 0 1 1 1 1 1 2 2 2 1 2 2 4 5 4 4 4 6 5 6 6 6 6 6 7 7 8 7 7
5 2 2 2 2 2 2 1 1 1 2 1 1 1 2 2 2 2 2 2 3 4 4 4 5 5 4 4 6 6 5 6 6 7 6 7 9 8
3 2 3 3 3 2 2 2 2 2 2 1 2 2 2 2 2 3 3 3 4 4 4 4 3 4 6 8 5 4 5 7 6 6 6 7 9 9
2 3 3 3 3 3 3 3 2 2 1 2 2 2 2 2 3 3 3 4 4 5 5 4 3 4 5 7 7 7 8 7 6 7 7 7 8 10
3 3 3 3 3 3 3 3 3 2 2 2 2 3 3 2 3 3 3 5 4 4 5 6 6 8 5 4 6 7 6 8 10 8 8 8 9 8
4 4 3 3 3 3 3 3 3 3 3 3 3 3 3 3 3 4 4 4 4 5 6 6 5 5 3 5 8 9 9 8 9 12 11 10 8 8
4 4 3 3 3 3 3 4 4 3 3 3 3 3 3 3 3 3 4 4 4 5 5 5 5 4 4 5 7 8 10 10 8 8 8 11 14 16
Wind_Direction
71 73 70 52 59 71 100 125 133 116 359 335 340 341 350 10 18 22 24 36 38 38 37 36 37 37 37 34 32 30 27 24 21 18 16 11 7 3
69 76 67 52 57 61 75 77 102 133 137 311 314 323 344 17 26 21 24 35 32 32 33 33 34 33 32 30 28 26 23 20 17 15 11 6 3 360
65 80 71 66 69 59 66 74 74 102 124 318 333 337 5 11 7 11 19 22 19 29 29 31 31 29 27 24 22 21 18 14 11 8 5 3 359 356
84 82 71 80 73 65 76 78 78 87 125 125 342 350 359 357 0 8 11 16 13 22 28 29 27 26 24 20 18 16 11 6 3 0 358 356 354 352
109 111 108 99 87 76 79 79 72 74 84 114 17 346 347 356 3 1 3 356 3 11 20 21 19 16 15 12 9 6 3 0 358 354 352 350 348 344
99 110 115 124 128 117 97 95 94 85 80 85 53 357 341 335 10 359 354 353 353 359 7 6 5 4 3 1 359 357 357 355 351 348 347 344 340 337
83 81 102 116 119 119 117 127 117 106 97 87 57 18 345 344 334 320 334 329 332 353 345 343 344 344 344 347 350 349 349 348 347 345 342 340 336 333
117 83 76 75 87 97 108 117 127 132 139 131 127 195 277 269 286 314 323 350 331 336 341 323 340 329 323 325 340 342 343 344 343 341 340 338 335 333
137 124 104 94 89 89 84 78 80 107 141 156 167 222 234 235 220 301 278 253 268 303 329 308 320 314 312 329 336 337 338 341 341 338 336 335 334 331
145 152 145 137 126 123 108 84 64 50 100 160 185 223 226 213 199 210 228 268 284 300 320 293 307 300 308 311 326 334 338 339 337 334 332 331 330 329
166 162 160 166 155 134 120 113 55 339 26 88 96 18 351 354 82 82 28 8 321 308 314 285 301 307 301 294 313 331 335 333 332 333 331 330 330 329
165 173 180 179 169 150 146 150 165 262 3 26 18 6 357 358 16 141 193 214 287 299 296 292 301 324 314 293 299 313 320 322 325 326 326 326 327 325
177 202 211 186 175 167 160 170 190 184 131 87 354 341 344 346 333 308 225 194 225 259 274 262 286 298 281 296 301 296 301 306 312 315 320 323 323 323
186 198 190 169 170 167 162 160 157 122 101 81 5 321 314 306 301 299 285 262 243 251 264 240 252 264 281 289 294 299 300 299 302 305 311 316 317 317
179 169 158 151 152 160 158 147 131 120 130 150 263 268 266 272 291 311 316 306 297 286 284 258 255 262 256 270 284 290 301 300 296 306 309 310 309 311
161 146 138 119 109 116 111 112 162 182 180 215 247 267 290 308 309 309 314 321 317 307 295 280 270 260 268 269 272 284 288 293 305 307 307 304 302 301
143 108 92 100 111 280 295 274 239 168 240 247 247 273 293 300 303 307 306 316 303 304 310 308 293 276 261 267 278 279 286 290 295 305 309 307 303 303
138 147 178 191 202 216 230 248 239 235 242 248 255 262 276 290 302 312 308 294 293 295 301 309 322 324 314 279 245 270 286 292 300 302 301 303 303 305
151 182 199 207 214 216 221 226 236 239 230 232 246 260 271 284 295 299 300 300 297 295 297 304 313 318 316 312 294 256 286 299 301 302 298 297 297 300
181 195 209 214 215 219 222 225 233 237 230 238 250 259 261 271 282 286 287 292 295 300 303 302 296 294 292 297 296 296 290 289 295 299 302 300 291 291
202 208 212 213 216 220 224 226 226 228 235 238 246 254 255 259 270 276 281 291 297 297 297 295 288 299 294 290 292 294 289 289 295 297 302 304 305 304
206 212 217 216 217 218 219 217 221 227 233 241 247 251 254 256 266 274 279 285 285 286 290 293 300 305 297 291 294 298 302 305 302 303 300 295 299 301
211 212 216 220 221 218 213 216 220 228 231 237 245 250 252 259 265 269 276 279 286 291 298 303 305 298 292 290 294 298 302 307 309 311 306 306 303 299